| time (UTC) | temp F | wind direction | speed MPH | gust MPH | rain 1hr in | rain 24hr in | rain mn in | humidity % | barometer mb |
| 20260906134440 | 79 | 360 | 0.0 | 0.0 | 0.00 | 0.00 | 1.66 | 80 | 1013.8 |
| 20260906133941 | 78 | 360 | 0.0 | 0.0 | 0.00 | 0.00 | 1.66 | 82 | 1013.8 |
| 20260906133442 | 78 | 204 | 0.0 | 1.0 | 0.00 | 0.00 | 1.66 | 82 | 1014.0 |
| 20260906132941 | 78 | 153 | 1.0 | 2.0 | 0.00 | 0.00 | 1.66 | 80 | 1014.0 |
| 20260906132440 | 78 | 206 | 0.0 | 2.0 | 0.00 | 0.00 | 1.66 | 81 | 1014.1 |
| 20260906131941 | 77 | 360 | 0.0 | 0.0 | 0.00 | 0.00 | 1.66 | 82 | 1014.2 |
| 20260906131440 | 77 | 360 | 0.0 | 0.0 | 0.00 | 0.00 | 1.66 | 82 | 1014.2 |
| 20260906130940 | 76 | 360 | 0.0 | 0.0 | 0.00 | 0.00 | 1.66 | 85 | 1014.4 |
| 20260906130441 | 75 | 360 | 0.0 | 0.0 | 0.00 | 0.00 | 1.66 | 85 | 1014.5 |
| 20260906125941 | 74 | 149 | 0.0 | 1.0 | 0.00 | 0.00 | 1.66 | 88 | 1014.4 |
| 20260906125441 | 73 | 360 | 0.0 | 0.0 | 0.00 | 0.00 | 1.66 | 91 | 1014.3 |
| 20260906124940 | 72 | 203 | 0.0 | 1.0 | 0.00 | 0.00 | 1.66 | 92 | 1014.3 |
| 20260906124441 | 72 | 360 | 0.0 | 0.0 | 0.00 | 0.00 | 1.66 | 93 | 1014.3 |
| 20260906123941 | 71 | 282 | 0.0 | 1.0 | 0.00 | 0.00 | 1.66 | 92 | 1014.2 |
| 20260906123441 | 71 | 360 | 0.0 | 0.0 | 0.00 | 0.00 | 1.66 | 92 | 1014.2 |
| 20260906122940 | 71 | 360 | 0.0 | 0.0 | 0.00 | 0.00 | 1.66 | 93 | 1014.1 |
| 20260906122440 | 71 | 257 | 0.0 | 0.0 | 0.00 | 0.00 | 1.66 | 93 | 1014.1 |
| 20260906121940 | 70 | 360 | 0.0 | 0.0 | 0.00 | 0.00 | 1.66 | 94 | 1014.2 |
| 20260906121441 | 70 | 304 | 0.0 | 1.0 | 0.00 | 0.00 | 1.66 | 94 | 1014.2 |
| 20260906120941 | 70 | 360 | 0.0 | 0.0 | 0.00 | 0.00 | 1.66 | 94 | 1014.1 |
| 20260906120441 | 70 | 256 | 0.0 | 0.0 | 0.00 | 0.00 | 1.66 | 94 | 1014.1 |
| 20260906115941 | 70 | 360 | 0.0 | 0.0 | 0.00 | 0.00 | 1.66 | 94 | 1014.2 |
| 20260906115441 | 70 | 360 | 0.0 | 0.0 | 0.00 | 0.00 | 1.66 | 93 | 1014.2 |
| 20260906114941 | 70 | 217 | 0.0 | 1.0 | 0.00 | 0.00 | 1.66 | 93 | 1014.4 |
| 20260906114440 | 70 | 360 | 0.0 | 0.0 | 0.00 | 0.00 | 1.66 | 93 | 1014.4 |
| 20260906113940 | 70 | 275 | 0.0 | 0.0 | 0.00 | 0.00 | 1.66 | 93 | 1014.3 |
| 20260906113442 | 70 | 290 | 0.0 | 0.0 | 0.00 | 0.00 | 1.66 | 94 | 1014.2 |
| 20260906112941 | 71 | 360 | 0.0 | 0.0 | 0.00 | 0.00 | 1.66 | 94 | 1014.1 |
| 20260906112441 | 71 | 360 | 0.0 | 0.0 | 0.00 | 0.00 | 1.66 | 94 | 1014.1 |
| 20260906111941 | 71 | 360 | 0.0 | 0.0 | 0.00 | 0.00 | 1.66 | 94 | 1014.2 |
| 20260906111440 | 71 | 360 | 0.0 | 0.0 | 0.00 | 0.00 | 1.66 | 94 | 1014.2 |
| 20260906110940 | 71 | 360 | 0.0 | 0.0 | 0.00 | 0.00 | 1.66 | 94 | 1014.0 |
| 20260906110440 | 71 | 279 | 0.0 | 1.0 | 0.00 | 0.00 | 1.66 | 94 | 1013.9 |
| 20260906105941 | 71 | 129 | 0.0 | 1.0 | 0.00 | 0.00 | 1.66 | 93 | 1013.7 |
| 20260906105441 | 71 | 360 | 0.0 | 0.0 | 0.00 | 0.00 | 1.66 | 91 | 1013.8 |
| 20260906104940 | 71 | 196 | 0.0 | 1.0 | 0.00 | 0.00 | 1.66 | 92 | 1013.6 |
| 20260906104440 | 71 | 360 | 0.0 | 0.0 | 0.00 | 0.00 | 1.66 | 92 | 1013.4 |
| 20260906103942 | 71 | 320 | 0.0 | 1.0 | 0.00 | 0.00 | 1.66 | 92 | 1013.5 |
| 20260906103441 | 71 | 360 | 0.0 | 0.0 | 0.00 | 0.00 | 1.66 | 92 | 1013.4 |
| 20260906102940 | 71 | 299 | 0.0 | 2.0 | 0.00 | 0.00 | 1.66 | 93 | 1013.4 |
| 20260906102441 | 71 | 356 | 0.0 | 2.0 | 0.00 | 0.00 | 1.66 | 93 | 1013.4 |
| 20260906101940 | 71 | 360 | 0.0 | 0.0 | 0.00 | 0.00 | 1.66 | 93 | 1013.4 |
| 20260906101440 | 71 | 360 | 0.0 | 0.0 | 0.00 | 0.00 | 1.66 | 93 | 1013.5 |
| 20260906100940 | 71 | 345 | 0.0 | 2.0 | 0.00 | 0.00 | 1.66 | 93 | 1013.3 |
| 20260906100440 | 71 | 360 | 0.0 | 0.0 | 0.00 | 0.00 | 1.66 | 93 | 1013.2 |
| 20260906095940 | 71 | 360 | 0.0 | 0.0 | 0.00 | 0.00 | 1.66 | 93 | 1013.2 |
| 20260906095441 | 71 | 324 | 0.0 | 2.0 | 0.00 | 0.00 | 1.66 | 93 | 1013.1 |
| 20260906094940 | 71 | 270 | 0.0 | 0.0 | 0.00 | 0.00 | 1.66 | 93 | 1013.0 |
| 20260906094449 | 71 | 124 | 1.0 | 2.0 | 0.00 | 0.00 | 1.66 | 93 | 1013.1 |
| 20260906093940 | 71 | 360 | 0.0 | 0.0 | 0.00 | 0.00 | 1.66 | 93 | 1013.1 |
| 20260906093440 | 71 | 217 | 0.0 | 0.0 | 0.00 | 0.00 | 1.66 | 93 | 1012.9 |
| 20260906092941 | 71 | 208 | 0.0 | 1.0 | 0.00 | 0.00 | 1.66 | 92 | 1012.9 |
| 20260906092440 | 71 | 360 | 0.0 | 0.0 | 0.00 | 0.00 | 1.66 | 92 | 1012.9 |
| 20260906091940 | 71 | 231 | 0.0 | 1.0 | 0.00 | 0.00 | 1.66 | 92 | 1013.1 |
| 20260906091441 | 71 | 360 | 0.0 | 0.0 | 0.00 | 0.00 | 1.66 | 89 | 1013.1 |
| 20260906090451 | 72 | 307 | 0.0 | 0.0 | 0.05 | 0.00 | 1.66 | 87 | 1012.9 |
| 20260906085941 | 73 | 289 | 1.0 | 2.0 | 0.05 | 0.00 | 1.65 | 86 | 1013.1 |
| 20260906085441 | 73 | 334 | 2.0 | 3.0 | 0.05 | 0.00 | 1.65 | 84 | 1013.2 |
| 20260906084941 | 73 | 302 | 2.0 | 3.0 | 0.05 | 0.00 | 1.65 | 82 | 1013.0 |
| 20260906084441 | 74 | 316 | 2.0 | 4.0 | 0.06 | 0.00 | 1.65 | 82 | 1012.9 |
| 20260906083940 | 74 | 274 | 0.0 | 1.0 | 0.06 | 0.00 | 1.65 | 79 | 1012.4 |
| 20260906083441 | 73 | 53 | 0.0 | 2.0 | 0.06 | 0.00 | 1.65 | 80 | 1012.4 |
| 20260906082941 | 73 | 114 | 2.0 | 4.0 | 0.06 | 0.00 | 1.65 | 82 | 1012.3 |
| 20260906082442 | 72 | 138 | 2.0 | 5.0 | 0.06 | 0.00 | 1.65 | 85 | 1012.4 |
| 20260906081940 | 72 | 125 | 1.0 | 3.0 | 0.14 | 0.00 | 1.57 | 87 | 1012.4 |
| 20260906081440 | 72 | 347 | 2.0 | 4.0 | 0.14 | 0.00 | 1.57 | 90 | 1012.7 |
| 20260906080940 | 72 | 224 | 1.0 | 2.0 | 0.19 | 0.00 | 1.57 | 90 | 1013.0 |
| 20260906080441 | 72 | 208 | 1.0 | 4.0 | 0.18 | 0.00 | 1.56 | 90 | 1013.2 |
| 20260906075941 | 72 | 156 | 2.0 | 5.0 | 0.26 | 0.00 | 1.59 | 90 | 1013.3 |
| 20260906075440 | 71 | 43 | 2.0 | 4.0 | 1.01 | 0.00 | 1.59 | 91 | 1013.5 |
| 20260906074943 | 71 | 133 | 3.0 | 5.0 | 1.01 | 0.00 | 1.56 | 91 | 1013.7 |
| 20260906074440 | 71 | 132 | 1.0 | 4.0 | 1.02 | 0.00 | 1.56 | 92 | 1013.8 |
| 20260906073941 | 71 | 123 | 4.0 | 9.0 | 0.92 | 0.00 | 1.56 | 93 | 1014.1 |
| 20260906073443 | 72 | 134 | 3.0 | 7.0 | 0.92 | 0.00 | 1.46 | 93 | 1014.3 |
| 20260906072940 | 73 | 162 | 3.0 | 9.0 | 0.96 | 0.00 | 1.46 | 94 | 1014.5 |
| 20260906072441 | 73 | 122 | 2.0 | 5.0 | 1.00 | 0.00 | 1.46 | 94 | 1014.6 |
| 20260906071941 | 73 | 140 | 4.0 | 7.0 | 0.63 | 0.00 | 1.70 | 93 | 1014.8 |
| 20260906071441 | 73 | 14 | 1.0 | 2.0 | 0.64 | 0.00 | 1.70 | 94 | 1014.7 |
| 20260906070941 | 73 | 166 | 2.0 | 4.0 | 0.72 | 0.00 | 1.71 | 95 | 1014.9 |
| 20260906070442 | 72 | 188 | 2.0 | 4.0 | 1.38 | 0.00 | 1.71 | 94 | 1014.6 |
| 20260906065941 | 73 | 129 | 3.0 | 7.0 | 1.36 | 0.00 | 1.68 | 95 | 1014.1 |
| 20260906065440 | 73 | 332 | 2.0 | 2.0 | 1.09 | 0.00 | 1.41 | 95 | 1014.1 |
| 20260906064944 | 73 | 269 | 1.0 | 2.0 | 1.10 | 0.00 | 1.40 | 95 | 1013.8 |
| 20260906064440 | 73 | 308 | 1.0 | 2.0 | 1.34 | 0.00 | 1.40 | 94 | 1013.7 |
| 20260906063940 | 73 | 342 | 2.0 | 3.0 | 1.36 | 0.00 | 1.40 | 94 | 1013.9 |
| 20260906063440 | 73 | 337 | 1.0 | 3.0 | 1.08 | 0.00 | 1.09 | 94 | 1013.9 |
| 20260906062940 | 73 | 104 | 0.0 | 2.0 | 1.09 | 0.00 | 1.09 | 94 | 1013.8 |
| 20260906062440 | 74 | 82 | 1.0 | 2.0 | 0.46 | 0.00 | 1.08 | 94 | 1013.7 |
| 20260906061945 | 74 | 324 | 2.0 | 3.0 | 0.46 | 0.00 | 0.46 | 92 | 1013.8 |
| 20260906061441 | 74 | 205 | 0.0 | 2.0 | 0.41 | 0.00 | 0.46 | 91 | 1013.7 |
| 20260906060940 | 74 | 348 | 2.0 | 4.0 | 0.41 | 0.00 | 0.46 | 90 | 1013.5 |
| 20260906060440 | 74 | 184 | 1.0 | 2.0 | 0.41 | 0.00 | 0.41 | 86 | 1012.8 |
| 20260906055940 | 74 | 169 | 3.0 | 4.0 | 0.07 | 0.00 | 0.41 | 85 | 1012.8 |
| 20260906055440 | 75 | 135 | 2.0 | 4.0 | 0.03 | 0.00 | 0.41 | 89 | 1012.8 |
| 20260906054940 | 76 | 128 | 3.0 | 5.0 | 0.03 | 0.00 | 0.14 | 88 | 1012.8 |
| 20260906054441 | 77 | 91 | 1.0 | 3.0 | 0.03 | 0.00 | 0.06 | 87 | 1013.0 |
| 20260906053942 | 79 | 144 | 2.0 | 4.0 | 0.03 | 0.00 | 0.04 | 83 | 1013.1 |
| 20260906053440 | 80 | 137 | 1.0 | 3.0 | 0.00 | 0.00 | 0.01 | 80 | 1013.6 |
| 20260906052941 | 81 | 138 | 2.0 | 4.0 | 0.00 | 0.00 | 0.00 | 73 | 1013.5 |
| 20260906052440 | 80 | 144 | 2.0 | 6.0 | 0.00 | 0.00 | 0.00 | 72 | 1013.4 |
| 20260906051940 | 80 | 158 | 2.0 | 4.0 | 0.00 | 0.00 | 0.00 | 75 | 1013.5 |
| 20260906051440 | 79 | 77 | 2.0 | 4.0 | 0.00 | 0.00 | 0.00 | 77 | 1013.5 |
| 20260906050940 | 78 | 163 | 2.0 | 6.0 | 0.00 | 0.00 | 0.00 | 82 | 1013.4 |
| 20260906050441 | 78 | 7 | 0.0 | 2.0 | 0.00 | 0.00 | 0.00 | 82 | 1013.2 |
| 20260906045941 | 78 | 360 | 0.0 | 0.0 | 0.00 | 0.00 | 0.02 | 82 | 1013.0 |
| 20260906045448 | 78 | 360 | 0.0 | 0.0 | 0.00 | 0.00 | 0.02 | 82 | 1012.9 |
| 20260906044941 | 78 | 360 | 0.0 | 0.0 | 0.00 | 0.00 | 0.02 | 82 | 1012.9 |
| 20260906044440 | 78 | 360 | 0.0 | 0.0 | 0.00 | 0.00 | 0.02 | 82 | 1013.0 |
| 20260906043940 | 78 | 286 | 0.0 | 1.0 | 0.00 | 0.00 | 0.02 | 82 | 1013.2 |
| 20260906043441 | 78 | 360 | 0.0 | 0.0 | 0.00 | 0.00 | 0.02 | 82 | 1013.3 |
| 20260906042941 | 78 | 162 | 0.0 | 1.0 | 0.00 | 0.00 | 0.02 | 82 | 1013.3 |
| 20260906042441 | 78 | 360 | 0.0 | 0.0 | 0.00 | 0.00 | 0.02 | 82 | 1013.3 |
| 20260906041940 | 78 | 360 | 0.0 | 0.0 | 0.00 | 0.00 | 0.02 | 82 | 1013.4 |
| 20260906041440 | 78 | 360 | 0.0 | 0.0 | 0.00 | 0.00 | 0.02 | 82 | 1013.4 |
| 20260906040941 | 79 | 360 | 0.0 | 0.0 | 0.00 | 0.00 | 0.02 | 81 | 1013.4 |
| 20260906040440 | 79 | 190 | 0.0 | 0.0 | 0.00 | 0.00 | 0.02 | 81 | 1013.4 |
| 20260906035943 | 79 | 360 | 0.0 | 0.0 | 0.00 | 0.00 | 0.02 | 80 | 1013.5 |
| 20260906035440 | 79 | 360 | 0.0 | 0.0 | 0.00 | 0.00 | 0.02 | 80 | 1013.5 |
| 20260906034941 | 79 | 360 | 0.0 | 0.0 | 0.00 | 0.00 | 0.02 | 79 | 1013.5 |
| 20260906034441 | 79 | 262 | 0.0 | 1.0 | 0.00 | 0.00 | 0.02 | 79 | 1013.4 |
| 20260906033940 | 79 | 360 | 0.0 | 0.0 | 0.00 | 0.00 | 0.02 | 79 | 1013.4 |
| 20260906033441 | 80 | 360 | 0.0 | 0.0 | 0.00 | 0.00 | 0.02 | 79 | 1013.4 |
| 20260906032940 | 80 | 360 | 0.0 | 0.0 | 0.00 | 0.00 | 0.02 | 78 | 1013.4 |
| 20260906032440 | 80 | 360 | 0.0 | 0.0 | 0.00 | 0.00 | 0.02 | 77 | 1013.4 |
| 20260906031940 | 80 | 360 | 0.0 | 0.0 | 0.00 | 0.00 | 0.02 | 78 | 1013.4 |
| 20260906031441 | 80 | 360 | 0.0 | 0.0 | 0.00 | 0.00 | 0.02 | 77 | 1013.3 |
| 20260906030941 | 80 | 360 | 0.0 | 0.0 | 0.00 | 0.00 | 0.02 | 77 | 1013.3 |
| 20260906030440 | 81 | 360 | 0.0 | 0.0 | 0.00 | 0.00 | 0.02 | 78 | 1013.2 |
| 20260906025942 | 81 | 360 | 0.0 | 0.0 | 0.00 | 0.00 | 0.02 | 77 | 1013.3 |
| 20260906025443 | 81 | 360 | 0.0 | 0.0 | 0.00 | 0.00 | 0.02 | 74 | 1013.2 |
| 20260906024940 | 81 | 360 | 0.0 | 0.0 | 0.00 | 0.00 | 0.02 | 75 | 1013.2 |
| 20260906024441 | 81 | 292 | 0.0 | 1.0 | 0.00 | 0.00 | 0.02 | 76 | 1013.2 |
| 20260906023942 | 80 | 295 | 0.0 | 1.0 | 0.00 | 0.00 | 0.02 | 74 | 1013.0 |
| 20260906023441 | 80 | 360 | 0.0 | 0.0 | 0.00 | 0.00 | 0.02 | 79 | 1013.0 |
| 20260906022941 | 80 | 360 | 0.0 | 0.0 | 0.00 | 0.00 | 0.02 | 78 | 1012.9 |
| 20260906022442 | 80 | 254 | 0.0 | 1.0 | 0.00 | 0.00 | 0.02 | 78 | 1012.7 |
| 20260906021941 | 80 | 275 | 0.0 | 2.0 | 0.00 | 0.00 | 0.02 | 80 | 1012.7 |
| 20260906021441 | 80 | 199 | 0.0 | 1.0 | 0.00 | 0.00 | 0.02 | 79 | 1012.7 |
| 20260906020941 | 80 | 360 | 0.0 | 0.0 | 0.00 | 0.00 | 0.02 | 79 | 1012.7 |
| 20260906020443 | 80 | 207 | 1.0 | 2.0 | 0.00 | 0.00 | 0.02 | 79 | 1012.6 |
| 20260906015940 | 80 | 331 | 0.0 | 1.0 | 0.00 | 0.00 | 0.02 | 78 | 1012.6 |
| 20260906015440 | 80 | 360 | 0.0 | 0.0 | 0.00 | 0.00 | 0.02 | 79 | 1012.6 |
| 20260906014941 | 80 | 108 | 0.0 | 1.0 | 0.00 | 0.00 | 0.02 | 79 | 1012.4 |
| 20260906014440 | 80 | 360 | 0.0 | 0.0 | 0.00 | 0.00 | 0.02 | 79 | 1012.4 |
| 20260906013941 | 80 | 340 | 0.0 | 2.0 | 0.00 | 0.00 | 0.02 | 77 | 1012.3 |
| 20260906013441 | 81 | 360 | 0.0 | 0.0 | 0.00 | 0.00 | 0.02 | 78 | 1012.2 |
| 20260906012940 | 81 | 360 | 0.0 | 0.0 | 0.00 | 0.00 | 0.02 | 77 | 1012.1 |
| 20260906012440 | 81 | 360 | 0.0 | 0.0 | 0.00 | 0.00 | 0.02 | 77 | 1012.1 |
| 20260906011941 | 81 | 360 | 0.0 | 0.0 | 0.00 | 0.00 | 0.02 | 77 | 1012.0 |
| 20260906011440 | 81 | 360 | 0.0 | 0.0 | 0.00 | 0.00 | 0.02 | 78 | 1012.1 |
| 20260906010941 | 81 | 360 | 0.0 | 0.0 | 0.00 | 0.00 | 0.02 | 76 | 1012.1 |
| 20260906010441 | 81 | 360 | 0.0 | 0.0 | 0.00 | 0.00 | 0.02 | 77 | 1012.1 |
| 20260906005940 | 81 | 360 | 0.0 | 0.0 | 0.00 | 0.00 | 0.02 | 77 | 1012.0 |
| 20260906005441 | 81 | 271 | 0.0 | 1.0 | 0.00 | 0.00 | 0.02 | 76 | 1012.0 |
| 20260906004941 | 81 | 278 | 0.0 | 0.0 | 0.00 | 0.00 | 0.02 | 76 | 1012.0 |
| 20260906004440 | 81 | 360 | 0.0 | 0.0 | 0.00 | 0.00 | 0.02 | 76 | 1011.9 |
| 20260906003941 | 81 | 360 | 0.0 | 0.0 | 0.00 | 0.00 | 0.02 | 74 | 1011.9 |
| 20260906003441 | 81 | 271 | 0.0 | 0.0 | 0.02 | 0.00 | 0.02 | 74 | 1011.9 |
| 20260906002941 | 81 | 297 | 0.0 | 1.0 | 0.02 | 0.00 | 0.02 | 76 | 1011.9 |
| 20260906002443 | 81 | 242 | 0.0 | 2.0 | 0.02 | 0.00 | 0.02 | 77 | 1012.0 |
| 20260906001940 | 81 | 236 | 0.0 | 2.0 | 0.02 | 0.00 | 0.02 | 77 | 1012.0 |
| 20260906001440 | 81 | 360 | 0.0 | 0.0 | 0.02 | 0.00 | 0.02 | 77 | 1012.2 |
| 20260906000941 | 81 | 226 | 0.0 | 1.0 | 0.02 | 0.00 | 0.02 | 79 | 1012.3 |
| 20260906000441 | 82 | 237 | 1.0 | 2.0 | 0.02 | 0.00 | 0.02 | 82 | 1012.7 |
| 20260905235940 | 82 | 216 | 1.0 | 2.0 | 0.02 | 0.00 | 0.02 | 78 | 1012.8 |
| 20260905235441 | 82 | 223 | 0.0 | 2.0 | 0.02 | 0.00 | 0.02 | 78 | 1013.0 |
| 20260905234941 | 82 | 38 | 1.0 | 3.0 | 0.02 | 0.00 | 0.02 | 80 | 1012.8 |
| 20260905234441 | 82 | 187 | 0.0 | 2.0 | 0.02 | 0.00 | 0.02 | 78 | 1012.7 |
| 20260905233941 | 83 | 287 | 1.0 | 2.0 | 0.02 | 0.00 | 0.02 | 80 | 1012.6 |
| 20260905233440 | 87 | 314 | 2.0 | 2.0 | 0.02 | 0.00 | 0.02 | 74 | 1012.1 |
| 20260905232940 | 90 | 272 | 1.0 | 2.0 | 0.02 | 0.00 | 0.02 | 59 | 1011.9 |
| 20260905232441 | 91 | 14 | 0.0 | 2.0 | 0.00 | 0.00 | 0.00 | 55 | 1011.8 |
| 20260905231941 | 91 | 360 | 0.0 | 0.0 | 0.00 | 0.00 | 0.00 | 55 | 1011.6 |
| 20260905231451 | 92 | 360 | 0.0 | 0.0 | 0.00 | 0.00 | 0.00 | 55 | 1011.6 |
| 20260905230940 | 92 | 360 | 0.0 | 0.0 | 0.00 | 0.00 | 0.00 | 54 | 1011.6 |
| 20260905230440 | 92 | 131 | 0.0 | 1.0 | 0.00 | 0.00 | 0.00 | 53 | 1011.6 |
| 20260905225940 | 93 | 360 | 0.0 | 0.0 | 0.00 | 0.00 | 0.00 | 52 | 1011.5 |
| 20260905225442 | 94 | 148 | 1.0 | 3.0 | 0.00 | 0.00 | 0.00 | 54 | 1011.5 |
| 20260905224941 | 94 | 360 | 0.0 | 0.0 | 0.00 | 0.00 | 0.00 | 52 | 1011.3 |
| 20260905224440 | 94 | 360 | 0.0 | 0.0 | 0.00 | 0.00 | 0.00 | 52 | 1011.3 |
| 20260905223940 | 94 | 360 | 0.0 | 0.0 | 0.00 | 0.00 | 0.00 | 50 | 1011.4 |
| 20260905223440 | 94 | 198 | 1.0 | 2.0 | 0.00 | 0.00 | 0.00 | 49 | 1011.4 |
| 20260905222941 | 94 | 253 | 0.0 | 1.0 | 0.00 | 0.00 | 0.00 | 51 | 1011.4 |
| 20260905222443 | 94 | 270 | 0.0 | 1.0 | 0.00 | 0.00 | 0.00 | 51 | 1011.4 |
| 20260905221940 | 95 | 193 | 1.0 | 2.0 | 0.00 | 0.00 | 0.00 | 49 | 1011.4 |
| 20260905221440 | 95 | 158 | 1.0 | 3.0 | 0.00 | 0.00 | 0.00 | 48 | 1011.4 |
| 20260905220941 | 95 | 195 | 1.0 | 2.0 | 0.00 | 0.00 | 0.00 | 48 | 1011.5 |
| 20260905220441 | 95 | 157 | 1.0 | 3.0 | 0.00 | 0.00 | 0.00 | 48 | 1011.5 |
| 20260905215940 | 95 | 212 | 1.0 | 2.0 | 0.00 | 0.00 | 0.00 | 48 | 1011.5 |
| 20260905215442 | 95 | 360 | 0.0 | 0.0 | 0.00 | 0.00 | 0.00 | 49 | 1011.6 |
| 20260905214941 | 96 | 360 | 0.0 | 0.0 | 0.00 | 0.00 | 0.00 | 48 | 1011.6 |
| 20260905214441 | 96 | 246 | 0.0 | 0.0 | 0.00 | 0.00 | 0.00 | 47 | 1011.6 |
| 20260905213940 | 96 | 155 | 2.0 | 2.0 | 0.00 | 0.00 | 0.00 | 47 | 1011.6 |
| 20260905213440 | 96 | 128 | 0.0 | 2.0 | 0.00 | 0.00 | 0.00 | 47 | 1011.6 |
| 20260905212940 | 96 | 155 | 1.0 | 3.0 | 0.00 | 0.00 | 0.00 | 45 | 1011.6 |
| 20260905212440 | 96 | 157 | 1.0 | 3.0 | 0.00 | 0.00 | 0.00 | 45 | 1011.6 |
| 20260905211940 | 96 | 178 | 1.0 | 2.0 | 0.00 | 0.00 | 0.00 | 46 | 1011.6 |
| 20260905211440 | 96 | 148 | 3.0 | 4.0 | 0.00 | 0.00 | 0.00 | 45 | 1011.6 |
| 20260905210940 | 97 | 147 | 2.0 | 3.0 | 0.00 | 0.00 | 0.00 | 45 | 1011.6 |
| 20260905210441 | 96 | 196 | 0.0 | 3.0 | 0.00 | 0.00 | 0.00 | 46 | 1011.6 |
| 20260905205941 | 97 | 360 | 0.0 | 0.0 | 0.00 | 0.00 | 0.00 | 48 | 1011.6 |
| 20260905205447 | 97 | 194 | 0.0 | 0.0 | 0.00 | 0.00 | 0.00 | 47 | 1011.6 |
| 20260905204943 | 97 | 152 | 2.0 | 3.0 | 0.00 | 0.00 | 0.00 | 45 | 1011.7 |
| 20260905204441 | 97 | 155 | 1.0 | 3.0 | 0.00 | 0.00 | 0.00 | 45 | 1011.9 |
| 20260905203940 | 97 | 150 | 1.0 | 3.0 | 0.00 | 0.00 | 0.00 | 46 | 1011.9 |
| 20260905203440 | 98 | 170 | 0.0 | 2.0 | 0.00 | 0.00 | 0.00 | 45 | 1011.9 |
| 20260905202942 | 98 | 162 | 1.0 | 2.0 | 0.00 | 0.00 | 0.00 | 44 | 1012.1 |
| 20260905202440 | 98 | 157 | 0.0 | 2.0 | 0.00 | 0.00 | 0.00 | 45 | 1012.1 |
| 20260905201940 | 98 | 191 | 0.0 | 2.0 | 0.00 | 0.00 | 0.00 | 45 | 1012.1 |
| 20260905201441 | 98 | 173 | 2.0 | 3.0 | 0.00 | 0.00 | 0.00 | 46 | 1012.2 |
| 20260905200941 | 98 | 143 | 2.0 | 4.0 | 0.00 | 0.00 | 0.00 | 46 | 1012.2 |
| 20260905200441 | 98 | 151 | 2.0 | 4.0 | 0.00 | 0.00 | 0.00 | 44 | 1012.3 |
| 20260905195941 | 98 | 152 | 1.0 | 2.0 | 0.00 | 0.00 | 0.00 | 46 | 1012.6 |
| 20260905195441 | 98 | 193 | 2.0 | 3.0 | 0.00 | 0.00 | 0.00 | 45 | 1012.6 |
| 20260905194941 | 99 | 161 | 2.0 | 4.0 | 0.00 | 0.00 | 0.00 | 44 | 1012.7 |
| 20260905194441 | 99 | 192 | 2.0 | 2.0 | 0.00 | 0.00 | 0.00 | 44 | 1012.8 |
| 20260905193940 | 99 | 168 | 0.0 | 3.0 | 0.00 | 0.00 | 0.00 | 45 | 1012.8 |
| 20260905193441 | 100 | 152 | 3.0 | 4.0 | 0.00 | 0.00 | 0.00 | 44 | 1012.8 |
| 20260905192941 | 100 | 183 | 1.0 | 3.0 | 0.00 | 0.00 | 0.00 | 44 | 1012.8 |
| 20260905192442 | 100 | 96 | 0.0 | 4.0 | 0.00 | 0.00 | 0.00 | 44 | 1012.9 |
| 20260905191941 | 99 | 205 | 2.0 | 2.0 | 0.00 | 0.00 | 0.00 | 43 | 1013.0 |
| 20260905191441 | 99 | 173 | 1.0 | 2.0 | 0.00 | 0.00 | 0.00 | 43 | 1013.1 |
| 20260905190941 | 99 | 173 | 1.0 | 2.0 | 0.00 | 0.00 | 0.00 | 44 | 1013.2 |
| 20260905190441 | 99 | 134 | 2.0 | 4.0 | 0.00 | 0.00 | 0.00 | 44 | 1013.3 |
| 20260905185940 | 99 | 147 | 3.0 | 5.0 | 0.00 | 0.00 | 0.00 | 43 | 1013.4 |
| 20260905185440 | 98 | 164 | 1.0 | 6.0 | 0.00 | 0.00 | 0.00 | 46 | 1013.5 |
| 20260905184942 | 99 | 185 | 1.0 | 2.0 | 0.00 | 0.00 | 0.00 | 47 | 1013.5 |
| 20260905184440 | 100 | 119 | 0.0 | 1.0 | 0.00 | 0.00 | 0.00 | 43 | 1013.5 |
| 20260905183943 | 100 | 187 | 2.0 | 3.0 | 0.00 | 0.00 | 0.00 | 45 | 1013.7 |
| 20260905183440 | 100 | 174 | 2.0 | 3.0 | 0.00 | 0.00 | 0.00 | 45 | 1013.7 |
| 20260905182941 | 99 | 181 | 1.0 | 3.0 | 0.00 | 0.00 | 0.00 | 48 | 1013.8 |
| 20260905182441 | 99 | 171 | 2.0 | 5.0 | 0.00 | 0.00 | 0.00 | 46 | 1013.8 |
| 20260905181940 | 100 | 153 | 2.0 | 4.0 | 0.00 | 0.00 | 0.00 | 47 | 1013.8 |
| 20260905181440 | 100 | 201 | 1.0 | 2.0 | 0.00 | 0.00 | 0.00 | 47 | 1013.9 |
| 20260905180941 | 99 | 155 | 2.0 | 5.0 | 0.00 | 0.00 | 0.00 | 46 | 1014.0 |
| 20260905180441 | 99 | 202 | 1.0 | 2.0 | 0.00 | 0.00 | 0.00 | 46 | 1014.1 |
| 20260905175958 | 98 | 168 | 3.0 | 6.0 | 0.00 | 0.00 | 0.00 | 46 | 1014.1 |
| 20260905175441 | 98 | 218 | 1.0 | 2.0 | 0.00 | 0.00 | 0.00 | 49 | 1014.2 |
| 20260905174941 | 99 | 226 | 2.0 | 2.0 | 0.00 | 0.00 | 0.00 | 48 | 1014.1 |
| 20260905174441 | 99 | 138 | 1.0 | 2.0 | 0.00 | 0.00 | 0.00 | 49 | 1014.2 |
| 20260905173940 | 99 | 179 | 3.0 | 5.0 | 0.00 | 0.00 | 0.00 | 47 | 1014.2 |
| 20260905173440 | 98 | 165 | 2.0 | 4.0 | 0.00 | 0.00 | 0.00 | 49 | 1014.2 |
| 20260905172941 | 99 | 172 | 2.0 | 4.0 | 0.00 | 0.00 | 0.00 | 48 | 1014.3 |
| 20260905172441 | 98 | 151 | 2.0 | 4.0 | 0.00 | 0.00 | 0.00 | 48 | 1014.4 |
| 20260905171941 | 97 | 189 | 2.0 | 3.0 | 0.00 | 0.00 | 0.00 | 51 | 1014.5 |
| 20260905171441 | 97 | 223 | 1.0 | 2.0 | 0.00 | 0.00 | 0.00 | 51 | 1014.5 |
| 20260905170940 | 98 | 131 | 2.0 | 6.0 | 0.00 | 0.00 | 0.00 | 49 | 1014.6 |
| 20260905170441 | 97 | 150 | 1.0 | 4.0 | 0.00 | 0.00 | 0.00 | 49 | 1014.6 |
| 20260905165942 | 96 | 173 | 1.0 | 4.0 | 0.00 | 0.00 | 0.00 | 50 | 1014.6 |
| 20260905165440 | 95 | 193 | 2.0 | 3.0 | 0.00 | 0.00 | 0.00 | 53 | 1014.6 |
| 20260905164941 | 95 | 142 | 2.0 | 3.0 | 0.00 | 0.00 | 0.00 | 54 | 1014.7 |
| 20260905164441 | 95 | 160 | 2.0 | 4.0 | 0.00 | 0.00 | 0.00 | 53 | 1014.8 |
| 20260905163941 | 94 | 147 | 3.0 | 5.0 | 0.00 | 0.00 | 0.00 | 54 | 1014.9 |
| 20260905163441 | 94 | 125 | 2.0 | 3.0 | 0.00 | 0.00 | 0.00 | 54 | 1015.0 |
| 20260905162940 | 94 | 143 | 2.0 | 4.0 | 0.00 | 0.00 | 0.00 | 55 | 1015.1 |
| 20260905162441 | 94 | 143 | 3.0 | 6.0 | 0.00 | 0.00 | 0.00 | 55 | 1015.2 |
| 20260905161940 | 93 | 141 | 2.0 | 4.0 | 0.00 | 0.00 | 0.00 | 57 | 1015.2 |
| 20260905161441 | 94 | 139 | 2.0 | 4.0 | 0.00 | 0.00 | 0.00 | 57 | 1015.2 |
| 20260905160941 | 94 | 150 | 4.0 | 6.0 | 0.00 | 0.00 | 0.00 | 56 | 1015.3 |
| 20260905160440 | 94 | 142 | 2.0 | 4.0 | 0.00 | 0.00 | 0.00 | 57 | 1015.3 |
| 20260905155941 | 95 | 140 | 2.0 | 4.0 | 0.00 | 0.00 | 0.00 | 54 | 1015.4 |
| 20260905155440 | 94 | 148 | 0.0 | 3.0 | 0.00 | 0.00 | 0.00 | 55 | 1015.4 |
| 20260905154942 | 93 | 171 | 1.0 | 4.0 | 0.00 | 0.00 | 0.00 | 59 | 1015.4 |
| 20260905154441 | 93 | 176 | 2.0 | 4.0 | 0.00 | 0.00 | 0.00 | 57 | 1015.4 |
| 20260905153941 | 93 | 145 | 0.0 | 0.0 | 0.00 | 0.00 | 0.00 | 58 | 1015.5 |
| 20260905153441 | 93 | 190 | 1.0 | 2.0 | 0.00 | 0.00 | 0.00 | 60 | 1015.5 |
| 20260905152941 | 94 | 217 | 2.0 | 2.0 | 0.00 | 0.00 | 0.00 | 60 | 1015.5 |
| 20260905152441 | 93 | 157 | 1.0 | 2.0 | 0.00 | 0.00 | 0.00 | 58 | 1015.5 |
| 20260905151943 | 93 | 194 | 0.0 | 1.0 | 0.00 | 0.00 | 0.00 | 61 | 1015.5 |
| 20260905151441 | 92 | 177 | 0.0 | 2.0 | 0.00 | 0.00 | 0.00 | 62 | 1015.5 |
| 20260905150940 | 91 | 360 | 0.0 | 0.0 | 0.00 | 0.00 | 0.00 | 63 | 1015.5 |
| 20260905150441 | 90 | 196 | 1.0 | 2.0 | 0.00 | 0.00 | 0.00 | 66 | 1015.5 |
| 20260905145941 | 89 | 155 | 1.0 | 3.0 | 0.00 | 0.00 | 0.00 | 67 | 1015.5 |
| 20260905145440 | 88 | 215 | 0.0 | 2.0 | 0.00 | 0.00 | 0.00 | 69 | 1015.4 |
| 20260905144941 | 88 | 139 | 0.0 | 2.0 | 0.00 | 0.00 | 0.00 | 70 | 1015.4 |
| 20260905144440 | 88 | 360 | 0.0 | 0.0 | 0.00 | 0.00 | 0.00 | 71 | 1015.5 |
| 20260905143943 | 88 | 138 | 0.0 | 2.0 | 0.00 | 0.00 | 0.00 | 71 | 1015.6 |
| 20260905143440 | 87 | 154 | 0.0 | 1.0 | 0.00 | 0.00 | 0.00 | 71 | 1015.6 |
| 20260905142941 | 86 | 156 | 0.0 | 2.0 | 0.00 | 0.00 | 0.00 | 72 | 1015.7 |
| 20260905142440 | 85 | 360 | 0.0 | 0.0 | 0.00 | 0.00 | 0.00 | 74 | 1015.7 |
| 20260905141940 | 85 | 360 | 0.0 | 0.0 | 0.00 | 0.00 | 0.00 | 75 | 1015.7 |
| 20260905141441 | 84 | 194 | 0.0 | 2.0 | 0.00 | 0.00 | 0.00 | 76 | 1015.8 |
| 20260905140940 | 83 | 360 | 0.0 | 0.0 | 0.00 | 0.00 | 0.00 | 77 | 1015.9 |
| 20260905140440 | 83 | 185 | 0.0 | 2.0 | 0.00 | 0.00 | 0.00 | 78 | 1015.8 |
| 20260905135941 | 83 | 164 | 0.0 | 0.0 | 0.00 | 0.00 | 0.00 | 79 | 1015.8 |
| 20260905135440 | 82 | 209 | 0.0 | 2.0 | 0.00 | 0.00 | 0.00 | 80 | 1015.9 |
| 20260905134941 | 82 | 186 | 0.0 | 1.0 | 0.00 | 0.00 | 0.00 | 81 | 1015.9 |